STARLINK-2057 (47666 NORAD) Tracking and Keplerian Element Data

This shows tracking and keplerian element data for the satellite.

Feedback or suggestion? Click here.




ElementValue
Catalog47666
NameSTARLINK-2057
Epoch Orbit178
Epoch Day59.91667824
Epoch Year2021
RAAN38.0997
Inclination53.0497
Eccentricity0.0006268
Argument of Perigee280.6059
Mean Anonmoly209.8291
Mean Motion15.86543132
Decay Rate0.00097313
L11 47666U 21012AY 21059.91667824 .00097313 00000-0 37495-3 0 9999
L22 47666 53.0497 38.0997 0006268 280.6059 209.8291 15.86543132 1782

Live tracking and technical data element details for STARLINK-2057 (NORAD 47666). STARLINK-2057 can be tracked NOW for your location showing map with azimuth and elevation plus other details from your city location.

Track the satellite on the map from your city or location and see movement details for azimuth, elevation, latitude, longitude, range, height, and movement on the map or in text.







IsCatalogInMostPopularTable: catalog: 47666, numindb: 3
Update: records affected: 1



GetName: 47666 STARLINK-2057

Hit Count: updated at: Mon, 01 Mar 2021 15:46:08 GMT